Погода в Каакупе

Парагвай     25°23′01″S   57°08′21″W
темп.,
°C
ветер,
м/с
пор.,
м/с
влажн.,
%
обл.,
%
осадки,
мм/ч
давл.,
гПа
погр.,
м
1 марта, пн
пн100:00+24юв12600 0.0 100824
03:00+23в24700 0.0 1007123
06:00+22в22780 0.0 100886
09:00+27всв24620 0.0 1010362
12:00+34всв23410 0.0 10091579
15:00+35юв233719 0.0 10052168
18:00+32всв454948 0.0 10041131
21:00+27всв3106225 0.0 1006321
2 марта, вт
вт200:00+25всв310680 0.0 1007304
03:00+23св39810 0.0 1007301
06:00+22св28900 0.0 1009240
09:00+27ссв37695 0.0 1010550
12:00+33с34460 0.0 10101454
15:00+37ссв21354 0.0 10062246
18:00+33всв344674 0.0 10051070
21:00+28в366167 0.0 1007160
3 марта, ср
ср300:00+26всв310730 0.2 1010305
03:00+24св39810 0.2 1009277
06:00+22св26952 1.1 1010168
09:00+26св368116 1.2 1011351
12:00+33с344711 0.0 10101328
15:00+37ссв223613 0.0 10072124
18:00+34св224479 0.0 10061814
21:00+28юв366351 0.4 1008145
4 марта, чт
чт400:00+24св4108746 0.9 1010350
03:00+23всв289373 1.1 1009309
06:00+22св2795100 0.0 1009294
09:00+25ссв378399 0.0 1011426
12:00+31с355988 0.9 10091286
15:00+28зсз258592 16.4 1007442
18:00+25юз3890100 5.9 1006361
21:00+22ю2796100 6.1 1008347
5 марта, пт
пт500:00+22ююз1298100 0.0 100792
03:00+22ююв1198100 0.6 100652
06:00+22зюз1297100 0.8 100575
09:00+23зюз369292 0.8 1007503
12:00+29юз356140 0.1 10061058
15:00+29ююз236625 1.9 10041325
18:00+26ююз258827 5.8 1003394
21:00+22ююв259615 9.1 1005157